CAPE
663 502 350 631 670 667 747 759 910 1105 934 831 843 698 630 710 743 712 712 420 211 144 387 289 264 285 493 426 376 491 361 20 395 230 538 132 8 245 653 747 726 829 1014
75 530 488 512 604 698 744 726 608 315 1006 1015 972 778 726 880 782 910 609 543 414 439 470 327 339 246 615 515 723 935 716 419 246 345 240 210 143 248 390 430 759 827 973
40 579 622 498 650 788 895 752 607 500 837 923 932 843 845 882 1127 1225 896 783 695 877 798 578 508 430 386 279 373 517 777 597 549 539 471 458 256 246 176 107 372 553 498
0 41 364 403 847 828 952 873 754 416 815 989 983 828 434 390 814 1078 921 1121 1111 1072 738 673 765 530 374 565 216 596 578 579 412 501 512 394 596 505 245 0 40 222 73
0 0 42 362 531 1058 889 1012 786 495 674 838 726 646 343 133 629 905 1288 1070 1234 1250 1186 1004 967 952 692 576 507 623 721 746 510 594 773 334 466 286 239 306 154 201 198
0 35 520 294 65 411 1099 1012 858 1016 494 601 557 442 298 377 606 728 1446 1341 1222 1621 1528 1215 1109 1106 1023 795 745 760 697 666 674 656 481 473 265 264 387 350 348 174 12
390 101 787 840 233 724 872 689 922 1112 1023 785 671 771 822 1104 1531 1449 1382 1324 1214 1147 1364 1402 1469 1355 1376 1158 873 842 726 724 698 751 707 823 524 251 334 328 197 362 253
1692 1699 1726 1639 1517 1203 1476 1754 1857 1912 1552 1290 1314 1347 1309 1029 1097 1068 1342 1416 1397 1296 1082 769 1167 1009 1038 1118 1108 889 774 684 546 550 533 676 541 596 439 310 181 143 181
546 844 951 1449 1093 939 711 693 868 849 1318 1455 1917 1833 1835 2213 2020 1828 1837 1791 1657 1517 1410 1236 1080 1302 1187 1163 1189 1052 828 782 892 854 705 716 736 628 337 350 221 178 76
77 74 53 36 73 94 361 444 354 413 407 632 909 1048 1128 1242 1387 1654 1803 1702 1793 1777 1780 1480 1456 1322 1314 1430 1289 1084 933 909 805 978 864 840 685 607 667 447 289 245 175
10 7 0 0 0 0 0 0 0 0 37 101 218 431 786 921 830 834 1191 1470 1611 1521 1777 1668 1416 1366 1250 1248 1222 1201 857 901 946 983 985 897 768 568 605 521 496 549 371
0 0 0 0 0 0 0 0 0 0 0 0 0 2 59 34 131 679 617 627 598 807 1409 1305 1310 1456 1374 1296 1300 1304 1224 1179 1127 1031 1006 904 939 869 851 785 585 525 555
0 0 0 0 0 0 0 0 0 0 0 0 0 0 0 0 0 33 325 437 273 294 193 151 676 1064 1127 1387 1516 1531 1506 1468 1476 1362 1191 1105 1094 1004 923 896 729 547 435
0 0 0 0 0 0 0 0 0 0 0 0 0 0 0 0 0 0 15 124 300 396 389 314 404 230 118 234 790 1019 1376 1472 1525 1487 1385 1316 1255 1259 1244 1175 1013 805 665
0 0 0 0 0 0 0 0 0 0 0 0 0 0 0 0 0 0 0 0 5 37 136 274 551 798 781 718 673 729 1072 1175 1094 1184 1509 1539 1496 1444 1398 1362 1253 1079 966
0 0 0 0 0 0 0 0 0 0 0 0 0 0 0 0 0 0 0 0 0 0 0 38 113 187 423 709 857 718 626 533 375 363 399 570 931 1597 1496 1385 1439 1334 1177
0 0 0 0 0 0 0 0 0 0 0 0 0 0 0 0 0 0 0 0 0 0 0 0 0 47 282 381 261 414 727 888 684 515 558 765 894 975 1327 1445 1269 1027 1150
0 0 0 0 0 0 0 0 0 0 0 0 0 0 0 0 0 0 0 0 0 0 0 0 0 0 17 272 419 377 269 286 683 558 479 416 596 900 1002 907 1140 1219 1272
0 0 0 0 0 0 0 0 0 0 0 0 0 0 0 0 0 0 0 0 0 0 0 0 0 0 0 8 161 246 201 276 340 405 691 674 747 741 912 1204 1234 1285 1367
0 0 0 0 0 0 0 0 0 0 0 0 0 1 1 0 0 0 0 0 0 0 0 0 0 0 0 0 0 49 228 302 453 514 564 609 275 121 153 276 774 1300 1371
0 0 0 0 0 0 0 0 0 0 0 0 0 0 0 0 0 0 0 0 0 0 0 0 0 0 0 0 26 95 164 274 396 487 541 144 4 16 26 0 0 244 511
0 0 0 0 0 0 0 0 0 0 0 0 0 0 0 0 0 0 0 0 0 0 0 0 0 0 0 15 25 31 145 200 270 323 14 0 0 0 0 0 0 0 0
0 0 0 0 0 0 1 0 0 0 0 0 0 0 0 0 0 0 0 0 0 0 0 0 0 0 5 6 16 39 0 1 8 8 0 0 0 0 0 0 0 0 0
0 0 0 0 0 0 0 0 0 0 0 0 0 0 0 0 0 0 0 0 1 2 1 0 0 0 0 25 9 0 9 54 4 0 0 0 0 0 0 0 0 1 67
0 0 0 0 0 0 0 0 0 0 0 0 0 0 0 0 0 0 0 1 0 1 1 0 0 0 0 0 0 0 0 0 0 0 0 0 0 0 0 0 0 0 0
0 0 0 0 0 0 0 0 0 0 0 0 0 0 0 0 1 0 0 0 0 0 0 0 0 0 0 0 0 0 0 0 0 0 0 0 0 0 0 0 0 0 0
CIN
-138 -155 -184 -97 -132 -170 -148 -141 -132 -97 -103 -96 -69 -66 -53 -36 -36 -57 -32 -47 -36 -34 -33 -46 -40 -78 -56 -55 -65 -42 -39 -44 -86 -120 -73 -111 -215 -111 -86 -76 -55 -44 -54
-284 -136 -193 -160 -133 -143 -163 -165 -173 -195 -103 -90 -78 -66 -36 -42 -45 -38 -46 -53 -53 -36 -35 -32 -29 -50 -35 -28 -37 -29 -35 -42 -77 -48 -73 -43 -87 -135 -126 -122 -76 -67 -66
-336 -108 -157 -196 -169 -175 -157 -161 -180 -197 -114 -98 -91 -79 -71 -58 -35 -29 -32 -43 -40 -37 -36 -31 -29 -37 -43 -49 -30 -26 -24 -21 -45 -57 -31 -25 -45 -86 -162 -145 -118 -129 -101
-0 -404 -277 -287 -184 -204 -209 -207 -165 -194 -163 -123 -105 -95 -112 -77 -57 -36 -32 -24 -28 -31 -45 -42 -38 -43 -48 -33 -52 -27 -29 -31 -27 -49 -53 -67 -40 -22 -21 -0 -215 -170 -190
-0 -0 -283 -285 -273 -171 -195 -202 -203 -203 -172 -149 -148 -140 -190 -226 -91 -55 -28 -28 -32 -31 -31 -27 -31 -38 -41 -37 -43 -34 -24 -31 -34 -29 -24 -26 -45 -103 -40 -19 -72 -157 -173
-0 -275 -424 -394 -276 -353 -226 -230 -236 -178 -247 -187 -186 -216 -236 -208 -152 -103 -27 -23 -26 -23 -27 -35 -31 -26 -37 -40 -35 -37 -38 -32 -46 -46 -51 -38 -39 -31 -32 -36 -42 -54 -25
-361 -410 -209 -247 -401 -365 -324 -316 -236 -203 -207 -153 -177 -167 -168 -114 -45 -34 -27 -25 -34 -41 -28 -34 -33 -33 -32 -37 -36 -40 -40 -40 -36 -37 -37 -45 -57 -70 -57 -42 -36 -37 -72
-134 -124 -108 -173 -229 -295 -254 -203 -162 -119 -90 -94 -103 -78 -72 -137 -115 -98 -57 -29 -22 -26 -32 -48 -38 -39 -51 -43 -34 -36 -40 -42 -50 -51 -66 -53 -63 -55 -52 -45 -38 -33 -46
-235 -215 -240 -135 -226 -257 -326 -299 -238 -194 -122 -80 -56 -45 -45 -22 -19 -19 -20 -23 -28 -30 -30 -32 -32 -23 -30 -32 -25 -26 -30 -31 -31 -37 -51 -59 -59 -73 -90 -71 -65 -39 -34
-350 -380 -364 -395 -218 -298 -284 -229 -248 -232 -253 -206 -135 -115 -110 -92 -75 -45 -35 -32 -27 -40 -22 -27 -28 -29 -24 -26 -26 -36 -47 -36 -47 -34 -40 -40 -53 -56 -63 -83 -81 -81 -42
-410 -448 -0 -0 -0 -0 -0 -0 -0 -0 -420 -387 -285 -224 -133 -110 -109 -99 -67 -51 -44 -29 -27 -34 -40 -33 -40 -39 -37 -42 -64 -47 -38 -39 -33 -36 -40 -50 -50 -72 -82 -68 -57
-0 -0 -0 -0 -0 -0 -0 -0 -0 -0 -0 -0 -0 -27 -474 -508 -333 -81 -102 -119 -150 -108 -58 -49 -35 -33 -37 -42 -33 -31 -35 -32 -40 -40 -31 -34 -33 -30 -33 -46 -67 -71 -68
-0 -0 -0 -0 -0 -0 -0 -0 -0 -0 -0 -0 -0 -0 -0 -0 -0 -318 -129 -95 -158 -147 -175 -193 -102 -49 -68 -38 -40 -28 -18 -22 -29 -35 -38 -39 -33 -31 -36 -42 -49 -60 -71
-0 -0 -0 -0 -0 -0 -0 -0 -0 -0 -0 -0 -0 -0 -0 -0 -0 -0 -168 -233 -110 -81 -62 -81 -87 -155 -238 -168 -76 -55 -27 -26 -32 -31 -42 -39 -29 -21 -26 -24 -36 -49 -46
-0 -0 -0 -0 -0 -0 -0 -0 -0 -0 -0 -0 -0 -0 -0 -0 -0 -0 -0 -0 -77 -248 -131 -49 -6 -5 -18 -32 -41 -48 -20 -31 -54 -56 -36 -35 -33 -25 -22 -16 -25 -33 -36
-0 -0 -0 -0 -0 -0 -0 -0 -0 -0 -0 -0 -0 -0 -0 -0 -0 -0 -0 -0 -0 -0 -0 -161 -91 -51 -16 -8 -5 -9 -47 -81 -120 -137 -141 -124 -84 -23 -30 -26 -14 -25 -22
-0 -0 -0 -0 -0 -0 -0 -0 -0 -0 -0 -0 -0 -0 -0 -0 -0 -0 -0 -0 -0 -0 -0 -0 -0 -152 -42 -22 -35 -16 -10 -10 -34 -72 -91 -87 -71 -61 -27 -30 -34 -61 -36
-0 -0 -0 -0 -0 -0 -0 -0 -0 -0 -0 -0 -0 -0 -0 -0 -0 -0 -0 -0 -0 -0 -0 -0 -0 -0 -233 -43 -19 -21 -31 -59 -16 -41 -68 -97 -89 -59 -24 -41 -38 -46 -46
-0 -0 -0 -0 -0 -0 -0 -0 -0 -0 -0 -0 -0 -0 -0 -0 -0 -0 -0 -0 -0 -0 -0 -0 -0 -0 -0 -124 -101 -48 -67 -62 -62 -41 -16 -21 -30 -51 -23 -6 -9 -19 -73
-0 -0 -0 -0 -0 -0 -0 -0 -0 -0 -0 -4 -2 -3 -2 -0 -0 -0 -0 -0 -0 -0 -0 -0 -0 -0 -0 -0 -0 -259 -75 -49 -46 -34 -36 -24 -91 -174 -161 -104 -43 -23 -62
-0 -0 -0 -0 -0 -0 -0 -0 -0 -0 -0 -0 -0 -0 -0 -0 -0 -0 -0 -0 -0 -0 -0 -0 -0 -0 -0 -0 -258 -233 -143 -57 -48 -40 -27 -68 -226 -254 -245 -0 -0 -193 -140
-0 -0 -0 -0 -0 -0 -0 -0 -0 -0 -0 -0 -0 -0 -0 -0 -0 -0 -0 -0 -0 -0 -0 -0 -0 -0 -0 -145 -354 -352 -182 -127 -56 -30 -134 -0 -0 -0 -0 -0 -0 -0 -0
-0 -0 -0 -0 -0 -0 -1 -0 -0 -0 -0 -0 -0 -0 -0 -0 -0 -0 -0 -0 -0 -0 -0 -0 -0 -0 -65 -73 -277 -324 -0 -33 -191 -279 -0 -0 -0 -0 -0 -0 -0 -0 -0
-0 -0 -0 -0 -0 -0 -0 -0 -0 -0 -0 -0 -0 -0 -0 -0 -0 -0 -0 -0 -0 -0 -0 -0 -0 -0 -0 -47 -52 -0 -284 -171 -106 -12 -0 -0 -0 -0 -0 -0 -0 -11 -179
-0 -0 -0 -0 -0 -0 -0 -3 -0 -1 -0 -0 -0 -0 -0 -0 -0 -0 -0 -0 -0 -0 -0 -0 -0 -0 -0 -0 -0 -0 -0 -0 -0 -0 -0 -0 -0 -0 -0 -0 -0 -0 -0
-0 -0 -0 -0 -0 -0 -0 -0 -0 -3 -4 -0 -0 -0 -0 -0 -0 -0 -0 -0 -0 -0 -0 -0 -0 -0 -0 -0 -0 -0 -0 -0 -0 -0 -0 -0 -0 -0 -0 -0 -0 -0 -0
Wind_Speed
21 19 20 25 26 25 23 22 25 25 22 18 13 8 10 18 18 11 13 15 14 14 15 17 15 14 15 14 14 14 14 15 13 14 13 13 13 19 21 19 19 10 14
27 24 21 25 27 26 25 25 26 25 24 20 18 17 12 18 15 11 9 13 11 11 10 11 12 9 15 18 6 13 13 11 12 12 14 12 13 12 11 11 14 9 10
24 26 24 22 24 25 25 26 25 24 22 22 17 6 12 17 16 10 7 9 10 8 9 9 8 7 9 12 13 15 9 9 8 11 11 15 13 12 13 9 6 9 7
19 3 23 21 21 21 22 24 24 24 22 20 18 13 6 7 6 5 6 7 9 8 5 4 4 5 6 5 13 17 16 14 19 19 10 11 16 13 16 15 9 9 8
9 10 13 13 17 12 16 21 20 23 21 20 19 17 15 16 20 19 12 8 4 2 1 2 2 5 3 3 11 13 14 18 18 20 20 19 19 15 14 17 12 10 7
21 19 12 13 15 14 12 1 18 16 19 19 17 17 16 14 14 16 12 7 7 2 2 1 2 2 1 1 5 10 13 19 19 17 16 19 18 17 17 17 19 12 8
10 21 16 19 17 20 21 9 6 16 7 17 17 12 10 10 10 13 11 6 4 3 2 1 1 7 1 1 4 8 9 11 16 17 17 15 14 14 15 16 18 14 14
14 14 13 15 18 22 20 18 18 19 12 9 11 13 10 8 9 11 8 7 4 2 3 2 3 1 5 5 4 7 9 10 12 14 16 18 19 18 18 18 15 18 17
16 15 16 17 20 21 21 19 18 18 17 18 18 19 20 17 7 4 4 5 4 5 6 5 5 5 7 4 5 8 9 11 15 16 17 17 19 19 17 16 16 14 15
15 17 18 19 21 21 21 20 19 18 19 21 21 21 23 24 25 26 26 25 22 17 14 13 12 9 12 10 9 8 14 19 19 19 18 18 17 16 18 20 20 17 17
14 15 17 18 19 20 21 22 22 23 23 24 24 26 26 27 28 28 27 27 26 24 19 16 15 17 19 18 14 11 14 18 21 21 21 18 18 13 11 13 21 22 20
12 14 18 20 21 22 23 24 24 25 25 26 27 27 27 28 29 28 27 26 27 28 27 26 22 22 23 23 18 24 21 18 17 18 19 17 19 17 16 11 13 23 22
13 17 17 19 20 21 23 25 26 27 28 29 30 30 30 31 31 31 29 25 25 26 26 26 27 24 25 30 28 26 23 24 23 23 20 21 19 18 17 16 13 18 22
12 16 18 20 20 22 23 24 26 27 28 29 29 30 30 30 30 30 30 29 28 27 27 26 24 23 26 30 29 29 29 29 28 26 26 24 21 20 19 17 17 20 24
12 17 19 21 22 23 24 24 25 27 28 29 30 29 29 30 30 31 31 30 30 29 26 25 25 25 24 26 28 28 28 28 30 30 28 27 24 21 21 21 21 18 18
14 19 22 24 26 26 25 25 26 28 30 31 31 29 30 31 31 32 32 31 31 31 30 29 28 27 27 27 27 28 28 28 30 32 32 31 30 29 24 21 16 17 19
17 21 24 25 26 24 25 27 29 31 32 32 31 31 32 33 32 33 33 33 33 33 32 32 31 31 31 30 30 30 30 30 30 32 33 33 31 31 30 28 30 30 19
17 21 22 24 23 24 27 28 30 32 32 31 33 34 35 35 34 34 34 34 34 35 34 33 32 32 31 30 30 30 31 31 31 31 34 35 35 33 33 34 35 34 31
16 19 20 20 22 25 27 29 30 30 31 31 33 33 34 35 35 35 35 35 36 36 36 33 32 32 33 32 33 33 33 32 32 31 30 31 33 34 36 36 36 36 35
16 17 18 21 23 25 27 28 29 28 30 30 31 31 33 33 34 35 35 34 35 35 34 34 32 32 34 34 34 34 32 32 31 30 28 28 31 33 33 36 37 40 40
15 16 19 21 23 24 27 27 27 29 28 30 31 31 31 33 34 34 34 34 33 33 34 33 32 31 30 33 33 32 29 28 30 28 27 29 32 33 34 35 38 41 40
15 16 19 22 23 24 26 27 27 28 29 30 30 30 31 32 32 34 34 33 33 33 33 32 30 28 28 30 29 27 23 22 25 27 30 31 33 35 37 36 38 40 41
14 17 20 21 23 24 26 27 27 28 29 28 30 30 30 31 32 33 33 34 33 32 31 29 28 28 26 26 26 24 24 22 24 27 31 34 36 36 35 35 37 37 37
15 17 20 22 24 25 26 26 26 26 27 28 29 30 30 33 32 30 30 31 31 31 29 28 28 28 27 27 27 28 25 24 27 30 32 34 34 35 36 35 35 35 36
16 17 20 22 23 23 25 26 26 27 28 28 29 29 29 31 32 30 30 31 32 27 26 26 25 25 26 26 29 28 28 30 30 32 34 36 37 38 37 37 36 36 37
16 16 18 20 22 23 24 27 26 26 27 29 30 30 30 30 31 31 30 28 25 27 27 27 27 25 26 27 27 29 30 31 31 29 32 35 36 36 38 38 39 39 39
Wind_Direction
219 195 204 156 155 155 148 144 153 160 147 134 119 74 91 263 279 117 137 151 136 135 140 171 165 154 168 160 159 147 180 157 177 183 176 140 185 203 220 281 273 64 154
203 194 191 161 155 155 159 156 163 169 164 151 144 149 126 282 303 358 109 143 127 122 109 128 146 31 333 309 158 161 165 118 127 168 37 85 142 98 16 35 163 114 97
167 164 162 146 154 156 156 161 158 155 158 161 144 9 314 296 308 349 38 126 138 122 133 123 112 74 2 346 351 340 49 160 86 127 68 14 49 51 42 64 56 92 78
159 92 150 137 151 156 164 174 167 169 158 148 143 135 87 123 88 75 45 97 147 146 119 53 69 77 128 106 332 320 326 342 311 315 13 14 353 17 8 30 53 65 127
349 29 101 107 187 118 156 173 173 181 170 162 158 158 153 165 186 191 160 148 113 82 68 21 23 355 102 110 338 331 322 312 318 307 312 321 332 351 353 345 17 24 86
159 165 189 31 307 330 328 154 171 173 183 182 171 168 157 159 162 177 161 139 146 75 156 169 329 359 143 82 350 336 327 310 311 320 323 312 320 326 338 342 335 0 33
72 182 242 264 283 314 286 352 143 180 145 193 202 184 153 153 163 177 177 161 140 115 121 175 292 317 245 213 334 332 329 326 319 317 319 320 323 325 326 330 341 354 352
8 11 341 327 343 340 335 329 313 308 203 172 186 198 185 179 190 194 192 191 195 217 190 221 319 215 206 239 280 322 321 321 321 320 317 314 311 313 311 315 326 328 333
30 14 9 10 3 358 360 5 7 312 330 337 336 333 330 329 328 276 260 241 269 312 313 310 313 311 321 297 285 304 307 314 314 314 315 314 313 313 312 311 314 321 325
38 38 34 29 21 13 7 6 9 359 347 336 337 335 329 324 319 314 310 310 312 311 311 314 316 317 316 313 307 301 308 306 307 309 311 312 313 313 309 306 305 305 309
50 34 27 17 13 7 359 357 355 350 341 336 336 333 328 322 317 315 315 313 310 305 303 299 302 307 309 307 308 307 308 308 305 305 305 309 311 310 307 308 303 299 300
43 20 -0 352 355 355 349 346 342 338 338 338 333 332 331 327 323 320 322 322 313 308 303 300 304 302 301 302 307 302 306 308 308 307 307 306 305 303 305 300 297 297 299
14 4 6 4 4 0 352 346 341 340 336 332 327 325 323 322 321 320 320 324 322 316 312 306 299 302 300 297 298 300 303 301 303 306 307 307 306 304 302 299 295 299 298
16 6 358 358 1 356 355 355 349 345 341 336 333 330 326 324 323 322 321 320 319 318 314 310 306 303 296 291 295 296 296 297 299 302 303 305 304 302 302 299 296 297 295
4 357 351 349 352 351 350 352 351 348 346 343 339 335 331 329 325 321 320 320 317 317 318 317 309 305 303 299 295 295 297 296 296 298 301 301 303 301 298 298 298 298 298
345 345 343 341 341 342 347 350 348 346 343 340 339 338 334 330 327 323 319 318 316 315 314 311 310 305 301 301 299 297 297 298 296 295 296 297 297 298 297 294 289 292 296
339 337 338 339 341 349 349 346 344 341 339 338 337 335 332 330 327 323 320 317 314 312 312 308 307 301 300 299 297 298 299 298 298 297 296 295 294 294 295 296 293 292 289
340 341 342 344 350 349 346 345 343 341 341 340 336 334 330 327 326 323 320 317 313 308 307 306 305 301 301 301 299 300 300 299 298 299 297 294 292 292 292 290 289 287 290
349 349 351 354 351 349 347 346 345 346 347 346 342 340 336 332 327 324 322 319 315 309 304 303 302 301 298 301 298 298 299 298 297 299 302 299 295 293 289 288 287 286 287
352 352 354 352 350 349 348 347 347 350 348 349 346 346 340 335 328 325 323 323 319 315 312 301 300 299 296 298 298 299 299 297 298 299 302 303 301 300 297 290 288 282 282
355 356 353 352 352 353 350 348 349 348 350 348 348 348 345 337 331 329 328 326 324 321 313 309 299 297 299 298 300 302 303 300 300 300 301 303 303 301 301 297 288 284 285
359 358 354 351 352 353 352 349 349 350 351 350 350 350 347 341 337 332 330 329 328 325 318 313 308 301 300 300 303 309 311 308 304 302 301 303 303 300 299 300 295 289 284
0 357 354 352 352 351 350 347 348 350 352 354 353 353 351 347 342 336 331 329 331 330 326 323 316 308 303 307 310 309 311 310 308 308 304 302 300 300 301 300 300 299 293
355 355 352 350 349 350 351 351 351 352 354 354 354 354 352 346 346 345 343 338 336 334 335 330 323 315 309 303 307 306 308 310 309 308 307 304 303 303 300 302 303 303 298
354 353 352 351 351 353 354 354 355 355 355 355 355 355 354 348 349 347 345 339 335 345 347 342 338 329 319 311 305 306 303 305 309 309 307 307 303 301 301 299 302 303 300
355 355 355 355 355 356 355 356 357 357 356 357 356 355 354 351 349 349 340 344 3 7 0 355 348 339 329 321 315 310 308 309 311 312 310 308 307 304 300 299 297 300 300